This demonstration page uses our WeatherBlox Daily Observations layout. Learn more.

40.92945, -100.16068

Hourly Observations for December 23, 2015

Temp ( °F °C ) Dew Point ( °F °C ) Humidity (%) Winds ( mph kmh ) Pressure ( in mb ) Visibility ( mi km ) Precip ( " mm )
12:15 am 00:15 Clear 34 1 32 0 93 93 NW 6 9 29.41 996 10 16.09344 0 0
12:35 am 00:35 Clear 34 1 32 0 93 93 NW 7 11 29.41 996 10 16.09344 0 0
12:55 am 00:55 Clear 32 0 32 0 100 100 NW 7 11 29.44 997 10 16.09344 0 0
1:15 am 01:15 Clear 32 0 32 0 100 100 NW 10 17 29.44 997 10 16.09344 0 0
1:35 am 01:35 Clear 32 0 30 -1 93 93 NNW 8 13 29.44 997 10 16.09344 0 0
1:55 am 01:55 Clear 32 0 30 -1 93 93 NW 10 17 29.44 997 10 16.09344 0 0
2:15 am 02:15 Clear 32 0 30 -1 93 93 NNW 8 13 29.44 997 10 16.09344 0 0
2:35 am 02:35 Clear 34 1 32 0 93 93 NNW 9 15 29.41 996 10 16.09344 0 0
2:55 am 02:55 Clear 36 2 32 0 87 87 NNW 13 20 29.41 996 10 16.09344 0 0
3:15 am 03:15 Clear 37 3 30 -1 75 75 NNW 16 26 29.41 996 10 16.09344 0 0
3:35 am 03:35 Clear 37 3 30 -1 75 75 NNW 16 26 29.41 996 10 16.09344 0 0
3:55 am 03:55 Mostly Cloudy 37 3 30 -1 75 75 NNW 16 26 29.41 996 10 16.09344 0 0
4:15 am 04:15 Cloudy 37 3 30 -1 75 75 NNW 14 22 29.41 996 10 16.09344 0 0
4:35 am 04:35 Cloudy 37 3 30 -1 75 75 NNW 14 22 29.41 996 10 16.09344 0 0
4:55 am 04:55 Cloudy 37 3 30 -1 75 75 NNW 13 20 29.41 996 10 16.09344 0 0
5:15 am 05:15 Cloudy 37 3 30 -1 75 75 NW 13 20 29.41 996 10 16.09344 0 0
5:35 am 05:35 Cloudy with Light Drizzle 37 3 32 0 81 81 NNW 16 26 29.41 996 10 16.09344 0 0
5:55 am 05:55 Cloudy with Rain 37 3 34 1 87 87 N 14 22 29.41 996 10 16.09344 0 0
6:15 am 06:15 Cloudy with Light Drizzle 37 3 34 1 87 87 NE 12 19 29.41 996 10 16.09344 0 0
6:35 am 06:35 Cloudy 37 3 34 1 87 87 NNE 8 13 29.41 996 10 16.09344 0 0
6:55 am 06:55 Cloudy 37 3 34 1 87 87 N 8 13 29.41 996 10 16.09344 0 0
7:15 am 07:15 Cloudy 36 2 34 1 93 93 N 9 15 29.41 996 10 16.09344 0 0
7:35 am 07:35 Cloudy 36 2 34 1 93 93 WNW 13 20 29.41 996 10 16.09344 0 0
7:55 am 07:55 Cloudy 36 2 34 1 93 93 NNW 10 17 29.41 996 10 16.09344 0 0
8:15 am 08:15 Partly Cloudy 36 2 32 0 87 87 NW 9 15 29.41 996 10 16.09344 0 0
8:35 am 08:35 Sunny 34 1 32 0 93 93 NW 6 9 29.41 996 10 16.09344 0 0
8:55 am 08:55 Sunny 34 1 32 0 93 93 WNW 7 11 29.41 996 10 16.09344 0 0
9:15 am 09:15 Sunny 36 2 32 0 87 87 WNW 7 11 29.41 996 10 16.09344 0 0
9:35 am 09:35 Sunny 36 2 32 0 87 87 WNW 6 9 29.44 997 10 16.09344 0 0
9:55 am 09:55 Sunny 36 2 34 1 93 93 WNW 9 15 29.44 997 10 16.09344 0 0
10:15 am 10:15 Sunny 37 3 34 1 87 87 WNW 8 13 29.44 997 10 16.09344 0 0
10:35 am 10:35 Sunny 39 4 34 1 81 81 NNW 8 13 29.44 997 10 16.09344 0 0
10:55 am 10:55 Sunny 41 5 32 0 70 70 NNW 9 15 29.44 997 10 16.09344 0 0
11:15 am 11:15 Sunny 41 5 30 -1 66 66 N 8 13 29.44 997 10 16.09344 0 0
11:35 am 11:35 Sunny 43 6 32 0 66 66 N 15 24 29.44 997 10 16.09344 0 0
11:55 am 11:55 Mostly Cloudy 41 5 32 0 70 70 N 14 22 29.44 997 10 16.09344 0 0
12:15 pm 12:15 Mostly Cloudy 43 6 32 0 66 66 N 15 24 29.44 997 10 16.09344 0 0
12:35 pm 12:35 Partly Cloudy 43 6 30 -1 61 61 N 13 20 29.44 997 10 16.09344 0 0
12:55 pm 12:55 Partly Cloudy 43 6 30 -1 61 61 N 8 13 29.44 997 10 16.09344 0 0
1:15 pm 13:15 Partly Cloudy 43 6 30 -1 61 61 NNW 9 15 29.44 997 10 16.09344 0 0
1:35 pm 13:35 Partly Cloudy 43 6 28 -2 57 57 N 9 15 29.44 997 10 16.09344 0 0
1:55 pm 13:55 Partly Cloudy 43 6 27 -3 53 53 N 7 11 29.44 997 10 16.09344 0 0
2:15 pm 14:15 Sunny 43 6 27 -3 53 53 N 8 13 29.44 997 10 16.09344 0 0
2:35 pm 14:35 Sunny 43 6 27 -3 53 53 NNW 8 13 29.44 997 10 16.09344 0 0
2:55 pm 14:55 Sunny 43 6 27 -3 53 53 NNW 7 11 29.44 997 10 16.09344 0 0
3:15 pm 15:15 Sunny 43 6 27 -3 53 53 NW 8 13 29.44 997 10 16.09344 0 0
3:35 pm 15:35 Partly Cloudy 43 6 27 -3 53 53 WNW 10 17 29.47 998 10 16.09344 0 0
3:55 pm 15:55 Sunny 43 6 27 -3 53 53 WNW 6 9 29.47 998 10 16.09344 0 0
4:15 pm 16:15 Sunny 43 6 25 -4 49 49 W 5 7 29.47 998 10 16.09344 0 0
4:35 pm 16:35 Sunny 43 6 27 -3 53 53 WNW 5 7 29.47 998 10 16.09344 0 0
4:55 pm 16:55 Sunny 41 5 27 -3 57 57 W 5 7 29.47 998 10 16.09344 0 0
5:15 pm 17:15 Sunny 37 3 27 -3 65 65 W 3 6 29.5 999 10 16.09344 0 0
5:35 pm 17:35 Clear 36 2 25 -4 65 65 WSW 6 9 29.53 1000 10 16.09344 0 0
5:55 pm 17:55 Clear 36 2 25 -4 65 65 SW 5 7 29.53 1000 10 16.09344 0 0
6:15 pm 18:15 Clear 34 1 25 -4 70 70 SW 5 7 29.56 1001 10 16.09344 0 0
6:35 pm 18:35 Clear 32 0 25 -4 75 75 Calm 29.56 1001 10 16.09344 0 0
6:55 pm 18:55 Clear 32 0 25 -4 75 75 Calm 29.59 1002 10 16.09344 0 0
7:15 pm 19:15 Clear 30 -1 23 -5 75 75 Calm 29.62 1003 10 16.09344 0 0
7:35 pm 19:35 Clear 32 0 25 -4 75 75 SSW 3 6 29.59 1002 10 16.09344 0 0
7:55 pm 19:55 Clear 28 -2 25 -4 86 86 WSW 3 6 29.65 1004 10 16.09344 0 0
8:15 pm 20:15 Clear 28 -2 25 -4 86 86 Calm 29.65 1004 10 16.09344 0 0
8:35 pm 20:35 Clear 28 -2 23 -5 80 80 Calm 29.65 1004 10 16.09344 0 0
8:55 pm 20:55 Clear 27 -3 23 -5 86 86 N 3 6 29.65 1004 10 16.09344 0 0
9:15 pm 21:15 Clear 27 -3 23 -5 86 86 N 5 7 29.68 1005 10 16.09344 0 0
9:35 pm 21:35 Clear 27 -3 23 -5 86 86 Calm 29.68 1005 10 16.09344 0 0
9:55 pm 21:55 Clear 25 -4 21 -6 86 86 NW 3 6 29.71 1006 10 16.09344 0 0
10:15 pm 22:15 Clear 25 -4 23 -5 93 93 Calm 29.71 1006 10 16.09344 0 0
10:35 pm 22:35 Mostly Cloudy 27 -3 25 -4 93 93 Calm 29.68 1005 10 16.09344 0 0
10:55 pm 22:55 Mostly Cloudy 27 -3 25 -4 93 93 WSW 3 6 29.71 1006 10 16.09344 0 0
11:15 pm 23:15 Cloudy 28 -2 27 -3 93 93 W 6 9 29.74 1007 10 16.09344 0 0
11:35 pm 23:35 Cloudy 30 -1 27 -3 86 86 NW 6 9 29.74 1007 10 16.09344 0 0
11:55 pm 23:55 Cloudy 30 -1 27 -3 86 86 NNW 8 13 29.74 1007 10 16.09344 0 0

Powered by AerisWeather